DW9791 Weather Reports


time (UTC)temp
C
wind
direction
speed
KPH
gust
KPH
rain 1hr
cm
rain 24hr
cm
rain mn
cm
humidity
%
barometer
mb
20260503190224 12 107 4.8 12.9 0.00 0.03 0.03 75 1014.1
20260503180245 11 106 9.7 9.7 0.00 0.03 0.03 82 1014.1
20260503173243 10 264 9.7 12.9 0.00 0.03 0.03 88 1014.0
20260503170236 10 112 0.0 12.9 0.00 0.03 0.03 90 1014.0
20260503150219 9 138 4.8 6.4 0.00 0.00 0.00 93 1013.3
20260503140241 8 180 0.0 0.0 0.00 0.00 0.00 92 1012.6
20260503130232 8 334 0.0 9.7 0.00 0.00 0.00 93 1012.1
20260503110244 8 153 0.0 0.0 0.00 0.00 0.00 92 1012.6
20260503100235 9 153 0.0 0.0 0.00 0.00 0.00 92 1012.7
20260503090226 9 275 0.0 0.0 0.00 0.00 0.00 90 1013.0
20260503080218 10 333 0.0 0.0 0.00 0.00 0.00 89 1013.3
20260503070240 10 333 0.0 4.8 0.00 0.00 0.00 89 1013.3
20260503053227 10 343 0.0 4.8 0.00 0.00 0.00 87 1013.3
20260503050222 10 342 0.0 0.0 0.00 0.00 0.00 86 1013.5
20260503040243 11 308 3.2 8.0 0.00 0.00 0.00 85 1012.9
20260503033239 11 334 4.8 8.0 0.00 0.00 0.00 85 1012.6
20260503030235 12 317 3.2 8.0 0.00 0.00 0.00 83 1012.6
20260503023230 12 332 3.2 6.4 0.00 0.00 0.00 83 1012.4
20260503013221 14 341 3.2 6.4 0.00 0.00 0.00 78 1012.6
20260503010247 15 338 3.2 6.4 0.00 0.00 0.00 76 1013.0
20260503000240 17 24 3.2 6.4 0.00 0.00 0.00 71 1013.2
20260502233234 17 331 0.0 6.4 0.00 0.00 0.00 70 1013.4
20260502230229 18 98 6.4 9.7 0.00 0.00 0.00 68 1013.8
20260502223225 18 121 3.2 11.3 0.00 0.00 0.00 67 1014.2
20260502213247 17 115 4.8 12.9 0.00 0.00 0.00 73 1014.9
20260502210242 16 122 4.8 14.5 0.00 0.00 0.00 76 1015.2
20260502203238 15 114 11.3 17.7 0.00 0.00 0.00 78 1015.2
20260502200236 13 160 3.2 14.5 0.00 0.00 0.00 80 1015.2